TimeCEST,TemperatureF,Dew PointF,Humidity,Sea Level PressureIn,VisibilityMPH,Wind Direction,Wind SpeedMPH,Gust SpeedMPH,PrecipitationIn,Events,Conditions,WindDirDegrees,DateUTC
12:20 AM,59.0,57.2,94,29.89,6.2,WSW,8.1,-,N/A,,Mostly Cloudy,250,2012-10-05 22:20:00
12:50 AM,59.0,57.2,94,29.89,6.2,SSW,12.7,-,N/A,,Mostly Cloudy,210,2012-10-05 22:50:00
1:20 AM,59.0,57.2,94,29.89,6.2,SSW,13.8,-,N/A,,Mostly Cloudy,210,2012-10-05 23:20:00
1:50 AM,59.0,57.2,94,29.86,6.2,SSW,15.0,-,N/A,,Mostly Cloudy,210,2012-10-05 23:50:00
2:00 AM,59,57,90,29.87,6,SSW,13.4,,,,Mostly Cloudy,210,2012-10-06 00:00:00
2:20 AM,59.0,55.4,88,29.86,6.2,SSW,13.8,-,N/A,,Mostly Cloudy,210,2012-10-06 00:20:00
2:50 AM,59.0,55.4,88,29.86,6.2,SSW,13.8,-,N/A,,Partly Cloudy,210,2012-10-06 00:50:00
3:20 AM,59.0,55.4,88,29.83,6.2,SSW,12.7,-,N/A,,Partly Cloudy,200,2012-10-06 01:20:00
3:50 AM,59.0,55.4,88,29.83,6.2,SSW,11.5,-,N/A,,Partly Cloudy,210,2012-10-06 01:50:00
4:20 AM,59.0,55.4,88,29.83,6.2,SSW,12.7,-,N/A,,Partly Cloudy,210,2012-10-06 02:20:00
4:50 AM,59.0,55.4,88,29.83,-9999.0,SSW,12.7,-,N/A,,Clear,210,2012-10-06 02:50:00
5:00 AM,58,56,89,29.82,9,SSW,13.4,,,,,210,2012-10-06 03:00:00
5:20 AM,59.0,55.4,88,29.80,-9999.0,SSW,12.7,-,N/A,,Clear,210,2012-10-06 03:20:00
5:50 AM,59.0,55.4,88,29.80,-9999.0,SSW,11.5,-,N/A,,Clear,200,2012-10-06 03:50:00
6:20 AM,59.0,55.4,88,29.80,-9999.0,SSW,12.7,-,N/A,,Clear,200,2012-10-06 04:20:00
6:50 AM,59.0,55.4,88,29.77,-9999.0,SSW,15.0,-,N/A,,Clear,210,2012-10-06 04:50:00
7:20 AM,59.0,55.4,88,29.77,-9999.0,SW,15.0,-,N/A,,Clear,220,2012-10-06 05:20:00
7:50 AM,59.0,55.4,88,29.77,-9999.0,SW,15.0,-,N/A,,Clear,220,2012-10-06 05:50:00
8:00 AM,59,54,80,29.79,17,SW,15.7,,,,Partly Cloudy,220,2012-10-06 06:00:00
8:20 AM,59.0,53.6,82,29.77,-9999.0,SSW,15.0,-,N/A,,Clear,210,2012-10-06 06:20:00
8:50 AM,59.0,53.6,82,29.77,-9999.0,SW,17.3,-,N/A,,Clear,220,2012-10-06 06:50:00
9:20 AM,59.0,53.6,82,29.80,6.2,SW,17.3,-,N/A,,Partly Cloudy,220,2012-10-06 07:20:00
9:50 AM,59.0,53.6,82,29.80,6.2,SW,16.1,-,N/A,Rain,Light Rain,220,2012-10-06 07:50:00
10:20 AM,59.0,53.6,82,29.80,6.2,SSW,16.1,-,N/A,Rain,Light Rain,210,2012-10-06 08:20:00
10:50 AM,57.2,55.4,94,29.80,6.2,SW,17.3,-,N/A,Rain,Light Rain,230,2012-10-06 08:50:00
11:00 AM,58,55,85,29.82,6,SW,17.9,,,Rain,Light Rain,230,2012-10-06 09:00:00
11:20 AM,57.2,55.4,94,29.83,5.0,SW,15.0,-,N/A,Rain,Light Rain,230,2012-10-06 09:20:00
11:50 AM,57.2,55.4,94,29.83,2.8,SW,15.0,-,N/A,Rain,Light Rain,230,2012-10-06 09:50:00
12:20 PM,57.2,55.4,94,29.86,-9999.0,West,12.7,-,N/A,Rain,Rain,260,2012-10-06 10:20:00
12:50 PM,50.0,50.0,100,29.89,3.7,NNW,9.2,-,N/A,Rain,Light Rain,340,2012-10-06 10:50:00
1:20 PM,50.0,50.0,100,29.92,5.6,North,6.9,-,N/A,Rain,Light Rain,10,2012-10-06 11:20:00
1:50 PM,50.0,50.0,100,29.92,1.9,North,5.8,-,N/A,Rain,Light Rain,10,2012-10-06 11:50:00
2:00 PM,51,49,91,29.94,2,North,4.5,,,Rain,Light Rain,10,2012-10-06 12:00:00
2:50 PM,50.0,50.0,100,29.95,2.5,North,4.6,-,N/A,,Mostly Cloudy,10,2012-10-06 12:50:00
3:20 PM,50.0,50.0,100,29.95,1.7,North,3.5,-,N/A,,Mostly Cloudy,360,2012-10-06 13:20:00
3:50 PM,50.0,50.0,100,29.95,1.7,NE,4.6,-,N/A,,Mostly Cloudy,50,2012-10-06 13:50:00
4:20 PM,50.0,48.2,94,29.95,-9999.0,Variable,2.3,-,N/A,,Mostly Cloudy,0,2012-10-06 14:20:00
4:50 PM,50.0,50.0,100,29.95,-9999.0,Variable,2.3,-,N/A,,Mostly Cloudy,0,2012-10-06 14:50:00
5:00 PM,51,49,91,29.96,3,North,2.2,,,Rain,Light Drizzle,10,2012-10-06 15:00:00
5:20 PM,50.0,50.0,100,29.95,1.8,NNE,4.6,-,N/A,Rain,Mostly Cloudy,30,2012-10-06 15:20:00
5:50 PM,50.0,50.0,100,29.95,1.7,ENE,5.8,-,N/A,,Mostly Cloudy,60,2012-10-06 15:50:00
6:20 PM,50.0,48.2,94,29.95,2.8,ENE,6.9,-,N/A,,Mostly Cloudy,60,2012-10-06 16:20:00
6:50 PM,50.0,50.0,100,29.95,6.2,NE,8.1,-,N/A,,Mostly Cloudy,50,2012-10-06 16:50:00
7:20 PM,50.0,48.2,94,29.95,4.3,ENE,6.9,-,N/A,Rain,Light Rain,60,2012-10-06 17:20:00
7:50 PM,50.0,48.2,94,29.95,4.3,ENE,9.2,-,N/A,Rain,Light Rain,60,2012-10-06 17:50:00
8:00 PM,50,48,92,29.98,4,ENE,8.9,,,Rain,Light Rain,60,2012-10-06 18:00:00
8:20 PM,50.0,48.2,94,29.95,-9999.0,ENE,6.9,-,N/A,Rain,Light Rain,60,2012-10-06 18:20:00
8:50 PM,50.0,48.2,94,29.95,-9999.0,ESE,6.9,-,N/A,Rain,Light Rain,120,2012-10-06 18:50:00
9:20 PM,50.0,48.2,94,29.98,1.9,SE,5.8,-,N/A,Rain,Rain,130,2012-10-06 19:20:00
9:50 PM,50.0,48.2,94,29.98,1.9,ESE,5.8,-,N/A,Rain,Rain,120,2012-10-06 19:50:00
10:20 PM,48.2,48.2,100,29.98,1.9,ESE,6.9,-,N/A,Rain,Rain,110,2012-10-06 20:20:00
10:50 PM,48.2,46.4,93,29.98,3.7,East,6.9,-,N/A,Rain,Light Rain,90,2012-10-06 20:50:00
11:00 PM,48,47,96,29.99,4,East,6.7,,,Rain,Light Rain,90,2012-10-06 21:00:00
11:20 PM,48.2,46.4,93,29.98,3.7,East,5.8,-,N/A,Rain,Light Rain,90,2012-10-06 21:20:00
11:50 PM,48.2,46.4,93,29.98,3.7,ENE,5.8,-,N/A,Rain,Light Rain,70,2012-10-06 21:50:00